<?xml version="1.0" encoding="UTF-8" standalone="no" ?>
<gpx xmlns="http://www.topografix.com/GPX/1/1" xmlns:xsi="http://www.w3.org/2001/XMLSchema-instance" xsi:schemaLocation="http://www.topografix.com/GPX/1/1 http://www.topografix.com/GPX/1/1/gpx.xsd" version="1.1" creator="VisuGPX - https://www.visugpx.com">
  <metadata>
    <name>Larnat 2019 05 29</name>
    <desc><![CDATA[
]]></desc>
  </metadata>
  <trk>
    <name><![CDATA[Larnat 2019 05 29]]></name>
    <trkseg>
      <trkpt lat="42.77648" lon="1.64133">
        <ele>1371.6</ele>
        <time>2019-06-04T09:12:53Z</time>
      </trkpt>
      <trkpt lat="42.77609" lon="1.64078">
        <ele>1373.5</ele>
        <time>2019-06-04T09:12:53Z</time>
      </trkpt>
      <trkpt lat="42.77571" lon="1.64024">
        <ele>1371.3</ele>
        <time>2019-06-04T09:12:53Z</time>
      </trkpt>
      <trkpt lat="42.77546" lon="1.63986">
        <ele>1368.1</ele>
        <time>2019-06-04T09:12:53Z</time>
      </trkpt>
      <trkpt lat="42.77525" lon="1.63968">
        <ele>1366.8</ele>
        <time>2019-06-04T09:12:53Z</time>
      </trkpt>
      <trkpt lat="42.7751" lon="1.63955">
        <ele>1367.2</ele>
        <time>2019-06-04T09:12:53Z</time>
      </trkpt>
      <trkpt lat="42.77458" lon="1.63953">
        <ele>1356.7</ele>
        <time>2019-06-04T09:12:53Z</time>
      </trkpt>
      <trkpt lat="42.77424" lon="1.63953">
        <ele>1347.9</ele>
        <time>2019-06-04T09:12:53Z</time>
      </trkpt>
      <trkpt lat="42.77392" lon="1.63954">
        <ele>1341</ele>
        <time>2019-06-04T09:12:53Z</time>
      </trkpt>
      <trkpt lat="42.77367" lon="1.63954">
        <ele>1335.7</ele>
        <time>2019-06-04T09:12:53Z</time>
      </trkpt>
      <trkpt lat="42.77331" lon="1.63945">
        <ele>1332.6</ele>
        <time>2019-06-04T09:12:53Z</time>
      </trkpt>
      <trkpt lat="42.77309" lon="1.63937">
        <ele>1333</ele>
        <time>2019-06-04T09:12:53Z</time>
      </trkpt>
      <trkpt lat="42.77283" lon="1.63938">
        <ele>1329.9</ele>
        <time>2019-06-04T09:12:53Z</time>
      </trkpt>
      <trkpt lat="42.77261" lon="1.63927">
        <ele>1331.4</ele>
        <time>2019-06-04T09:12:53Z</time>
      </trkpt>
      <trkpt lat="42.77241" lon="1.63925">
        <ele>1329.9</ele>
        <time>2019-06-04T09:12:53Z</time>
      </trkpt>
      <trkpt lat="42.77239" lon="1.63936">
        <ele>1325.8</ele>
        <time>2019-06-04T09:12:53Z</time>
      </trkpt>
      <trkpt lat="42.77272" lon="1.63955">
        <ele>1322.8</ele>
        <time>2019-06-04T09:12:53Z</time>
      </trkpt>
      <trkpt lat="42.77291" lon="1.63967">
        <ele>1320.7</ele>
        <time>2019-06-04T09:12:53Z</time>
      </trkpt>
      <trkpt lat="42.77312" lon="1.63984">
        <ele>1317.2</ele>
        <time>2019-06-04T09:12:53Z</time>
      </trkpt>
      <trkpt lat="42.7733" lon="1.64001">
        <ele>1313.3</ele>
        <time>2019-06-04T09:12:53Z</time>
      </trkpt>
      <trkpt lat="42.77349" lon="1.64019">
        <ele>1312.3</ele>
        <time>2019-06-04T09:12:53Z</time>
      </trkpt>
      <trkpt lat="42.77367" lon="1.64027">
        <ele>1313.8</ele>
        <time>2019-06-04T09:12:53Z</time>
      </trkpt>
      <trkpt lat="42.77386" lon="1.64036">
        <ele>1315.9</ele>
        <time>2019-06-04T09:12:53Z</time>
      </trkpt>
      <trkpt lat="42.77399" lon="1.64055">
        <ele>1313.9</ele>
        <time>2019-06-04T09:12:53Z</time>
      </trkpt>
      <trkpt lat="42.77411" lon="1.64076">
        <ele>1311.5</ele>
        <time>2019-06-04T09:12:53Z</time>
      </trkpt>
      <trkpt lat="42.77433" lon="1.64094">
        <ele>1315.1</ele>
        <time>2019-06-04T09:12:53Z</time>
      </trkpt>
      <trkpt lat="42.77452" lon="1.64114">
        <ele>1318.1</ele>
        <time>2019-06-04T09:12:53Z</time>
      </trkpt>
      <trkpt lat="42.77468" lon="1.64134">
        <ele>1319.1</ele>
        <time>2019-06-04T09:12:53Z</time>
      </trkpt>
      <trkpt lat="42.77483" lon="1.64157">
        <ele>1319.7</ele>
        <time>2019-06-04T09:12:53Z</time>
      </trkpt>
      <trkpt lat="42.77499" lon="1.64176">
        <ele>1320.7</ele>
        <time>2019-06-04T09:12:53Z</time>
      </trkpt>
      <trkpt lat="42.77515" lon="1.64199">
        <ele>1319</ele>
        <time>2019-06-04T09:12:53Z</time>
      </trkpt>
      <trkpt lat="42.77531" lon="1.64221">
        <ele>1317.2</ele>
        <time>2019-06-04T09:12:53Z</time>
      </trkpt>
      <trkpt lat="42.77546" lon="1.64247">
        <ele>1315</ele>
        <time>2019-06-04T09:12:53Z</time>
      </trkpt>
      <trkpt lat="42.77558" lon="1.64272">
        <ele>1310.5</ele>
        <time>2019-06-04T09:12:53Z</time>
      </trkpt>
      <trkpt lat="42.7757" lon="1.64297">
        <ele>1305.6</ele>
        <time>2019-06-04T09:12:53Z</time>
      </trkpt>
      <trkpt lat="42.77577" lon="1.6432">
        <ele>1298.9</ele>
        <time>2019-06-04T09:12:53Z</time>
      </trkpt>
      <trkpt lat="42.77588" lon="1.64342">
        <ele>1293.8</ele>
        <time>2019-06-04T09:12:53Z</time>
      </trkpt>
      <trkpt lat="42.7761" lon="1.64359">
        <ele>1291.5</ele>
        <time>2019-06-04T09:12:53Z</time>
      </trkpt>
      <trkpt lat="42.77629" lon="1.6438">
        <ele>1287.3</ele>
        <time>2019-06-04T09:12:53Z</time>
      </trkpt>
      <trkpt lat="42.7765" lon="1.644">
        <ele>1283.9</ele>
        <time>2019-06-04T09:12:53Z</time>
      </trkpt>
      <trkpt lat="42.77667" lon="1.64418">
        <ele>1280.4</ele>
        <time>2019-06-04T09:12:53Z</time>
      </trkpt>
      <trkpt lat="42.77682" lon="1.64436">
        <ele>1276.7</ele>
        <time>2019-06-04T09:12:53Z</time>
      </trkpt>
      <trkpt lat="42.77701" lon="1.64442">
        <ele>1278.9</ele>
        <time>2019-06-04T09:12:53Z</time>
      </trkpt>
      <trkpt lat="42.77718" lon="1.64445">
        <ele>1282.2</ele>
        <time>2019-06-04T09:12:53Z</time>
      </trkpt>
      <trkpt lat="42.77733" lon="1.64461">
        <ele>1279.2</ele>
        <time>2019-06-04T09:12:53Z</time>
      </trkpt>
      <trkpt lat="42.77748" lon="1.64479">
        <ele>1275.8</ele>
        <time>2019-06-04T09:12:53Z</time>
      </trkpt>
      <trkpt lat="42.77765" lon="1.64496">
        <ele>1273.3</ele>
        <time>2019-06-04T09:12:53Z</time>
      </trkpt>
      <trkpt lat="42.7778" lon="1.64512">
        <ele>1271.2</ele>
        <time>2019-06-04T09:12:53Z</time>
      </trkpt>
      <trkpt lat="42.77794" lon="1.64534">
        <ele>1268.1</ele>
        <time>2019-06-04T09:12:53Z</time>
      </trkpt>
      <trkpt lat="42.77808" lon="1.64555">
        <ele>1265.5</ele>
        <time>2019-06-04T09:12:53Z</time>
      </trkpt>
      <trkpt lat="42.7782" lon="1.64574">
        <ele>1262.8</ele>
        <time>2019-06-04T09:12:53Z</time>
      </trkpt>
      <trkpt lat="42.7783" lon="1.6459">
        <ele>1260.3</ele>
        <time>2019-06-04T09:12:53Z</time>
      </trkpt>
      <trkpt lat="42.77832" lon="1.64615">
        <ele>1251.2</ele>
        <time>2019-06-04T09:12:53Z</time>
      </trkpt>
      <trkpt lat="42.77835" lon="1.64636">
        <ele>1242.9</ele>
        <time>2019-06-04T09:12:53Z</time>
      </trkpt>
      <trkpt lat="42.77841" lon="1.64655">
        <ele>1234</ele>
        <time>2019-06-04T09:12:53Z</time>
      </trkpt>
      <trkpt lat="42.77838" lon="1.64666">
        <ele>1230.8</ele>
        <time>2019-06-04T09:12:53Z</time>
      </trkpt>
      <trkpt lat="42.77828" lon="1.64667">
        <ele>1231.7</ele>
        <time>2019-06-04T09:12:53Z</time>
      </trkpt>
      <trkpt lat="42.77814" lon="1.64651">
        <ele>1236.3</ele>
        <time>2019-06-04T09:12:53Z</time>
      </trkpt>
      <trkpt lat="42.77804" lon="1.64632">
        <ele>1241.6</ele>
        <time>2019-06-04T09:12:53Z</time>
      </trkpt>
      <trkpt lat="42.77792" lon="1.64602">
        <ele>1248.9</ele>
        <time>2019-06-04T09:12:53Z</time>
      </trkpt>
      <trkpt lat="42.77777" lon="1.64585">
        <ele>1250.5</ele>
        <time>2019-06-04T09:12:53Z</time>
      </trkpt>
      <trkpt lat="42.7776" lon="1.64573">
        <ele>1250.1</ele>
        <time>2019-06-04T09:12:53Z</time>
      </trkpt>
      <trkpt lat="42.77745" lon="1.64558">
        <ele>1250.8</ele>
        <time>2019-06-04T09:12:53Z</time>
      </trkpt>
      <trkpt lat="42.77731" lon="1.64544">
        <ele>1250.1</ele>
        <time>2019-06-04T09:12:53Z</time>
      </trkpt>
      <trkpt lat="42.77716" lon="1.64535">
        <ele>1248.2</ele>
        <time>2019-06-04T09:12:53Z</time>
      </trkpt>
      <trkpt lat="42.77704" lon="1.64538">
        <ele>1243.7</ele>
        <time>2019-06-04T09:12:53Z</time>
      </trkpt>
      <trkpt lat="42.7769" lon="1.64548">
        <ele>1236.7</ele>
        <time>2019-06-04T09:12:53Z</time>
      </trkpt>
      <trkpt lat="42.77674" lon="1.64554">
        <ele>1230.5</ele>
        <time>2019-06-04T09:12:53Z</time>
      </trkpt>
      <trkpt lat="42.77658" lon="1.64556">
        <ele>1226</ele>
        <time>2019-06-04T09:12:53Z</time>
      </trkpt>
      <trkpt lat="42.77651" lon="1.64569">
        <ele>1221</ele>
        <time>2019-06-04T09:12:53Z</time>
      </trkpt>
      <trkpt lat="42.77657" lon="1.64588">
        <ele>1217.8</ele>
        <time>2019-06-04T09:12:53Z</time>
      </trkpt>
      <trkpt lat="42.77671" lon="1.64603">
        <ele>1218.5</ele>
        <time>2019-06-04T09:12:53Z</time>
      </trkpt>
      <trkpt lat="42.77689" lon="1.64616">
        <ele>1221.4</ele>
        <time>2019-06-04T09:12:53Z</time>
      </trkpt>
      <trkpt lat="42.77703" lon="1.64628">
        <ele>1223.5</ele>
        <time>2019-06-04T09:12:53Z</time>
      </trkpt>
      <trkpt lat="42.77712" lon="1.64652">
        <ele>1221.8</ele>
        <time>2019-06-04T09:12:53Z</time>
      </trkpt>
      <trkpt lat="42.7772" lon="1.64672">
        <ele>1220.2</ele>
        <time>2019-06-04T09:12:53Z</time>
      </trkpt>
      <trkpt lat="42.77728" lon="1.64696">
        <ele>1218.9</ele>
        <time>2019-06-04T09:12:53Z</time>
      </trkpt>
      <trkpt lat="42.77736" lon="1.64719">
        <ele>1217.6</ele>
        <time>2019-06-04T09:12:53Z</time>
      </trkpt>
      <trkpt lat="42.77741" lon="1.6474">
        <ele>1215.8</ele>
        <time>2019-06-04T09:12:53Z</time>
      </trkpt>
      <trkpt lat="42.77744" lon="1.6476">
        <ele>1213.6</ele>
        <time>2019-06-04T09:12:53Z</time>
      </trkpt>
      <trkpt lat="42.77746" lon="1.64781">
        <ele>1211.2</ele>
        <time>2019-06-04T09:12:53Z</time>
      </trkpt>
      <trkpt lat="42.77757" lon="1.64806">
        <ele>1207.8</ele>
        <time>2019-06-04T09:12:53Z</time>
      </trkpt>
      <trkpt lat="42.77766" lon="1.64828">
        <ele>1203.8</ele>
        <time>2019-06-04T09:12:53Z</time>
      </trkpt>
      <trkpt lat="42.77775" lon="1.64854">
        <ele>1197.7</ele>
        <time>2019-06-04T09:12:53Z</time>
      </trkpt>
      <trkpt lat="42.77782" lon="1.64881">
        <ele>1190.8</ele>
        <time>2019-06-04T09:12:53Z</time>
      </trkpt>
      <trkpt lat="42.77788" lon="1.64907">
        <ele>1184.3</ele>
        <time>2019-06-04T09:12:53Z</time>
      </trkpt>
      <trkpt lat="42.77794" lon="1.64929">
        <ele>1177.8</ele>
        <time>2019-06-04T09:12:53Z</time>
      </trkpt>
      <trkpt lat="42.77811" lon="1.64941">
        <ele>1172</ele>
        <time>2019-06-04T09:12:53Z</time>
      </trkpt>
      <trkpt lat="42.77822" lon="1.64952">
        <ele>1167.6</ele>
        <time>2019-06-04T09:12:53Z</time>
      </trkpt>
      <trkpt lat="42.77835" lon="1.6497">
        <ele>1161.5</ele>
        <time>2019-06-04T09:12:53Z</time>
      </trkpt>
      <trkpt lat="42.77854" lon="1.64968">
        <ele>1161</ele>
        <time>2019-06-04T09:12:53Z</time>
      </trkpt>
      <trkpt lat="42.77876" lon="1.64961">
        <ele>1161.5</ele>
        <time>2019-06-04T09:12:53Z</time>
      </trkpt>
      <trkpt lat="42.77887" lon="1.64957">
        <ele>1161.4</ele>
        <time>2019-06-04T09:12:53Z</time>
      </trkpt>
      <trkpt lat="42.77899" lon="1.64954">
        <ele>1161</ele>
        <time>2019-06-04T09:12:53Z</time>
      </trkpt>
      <trkpt lat="42.7791" lon="1.64946">
        <ele>1161.2</ele>
        <time>2019-06-04T09:12:53Z</time>
      </trkpt>
      <trkpt lat="42.77921" lon="1.64938">
        <ele>1161.8</ele>
        <time>2019-06-04T09:12:53Z</time>
      </trkpt>
      <trkpt lat="42.77933" lon="1.6493">
        <ele>1163.3</ele>
        <time>2019-06-04T09:12:53Z</time>
      </trkpt>
      <trkpt lat="42.77942" lon="1.64923">
        <ele>1164.9</ele>
        <time>2019-06-04T09:12:53Z</time>
      </trkpt>
      <trkpt lat="42.77952" lon="1.64915">
        <ele>1166.2</ele>
        <time>2019-06-04T09:12:53Z</time>
      </trkpt>
      <trkpt lat="42.77963" lon="1.64911">
        <ele>1166.8</ele>
        <time>2019-06-04T09:12:53Z</time>
      </trkpt>
      <trkpt lat="42.77972" lon="1.64911">
        <ele>1167.3</ele>
        <time>2019-06-04T09:12:53Z</time>
      </trkpt>
      <trkpt lat="42.77978" lon="1.64892">
        <ele>1167.7</ele>
        <time>2019-06-04T09:12:53Z</time>
      </trkpt>
      <trkpt lat="42.77987" lon="1.64869">
        <ele>1168</ele>
        <time>2019-06-04T09:12:53Z</time>
      </trkpt>
      <trkpt lat="42.77995" lon="1.64851">
        <ele>1168.1</ele>
        <time>2019-06-04T09:12:53Z</time>
      </trkpt>
      <trkpt lat="42.78003" lon="1.64837">
        <ele>1168.7</ele>
        <time>2019-06-04T09:12:53Z</time>
      </trkpt>
      <trkpt lat="42.78013" lon="1.64819">
        <ele>1169.4</ele>
        <time>2019-06-04T09:12:53Z</time>
      </trkpt>
      <trkpt lat="42.78023" lon="1.64805">
        <ele>1169.3</ele>
        <time>2019-06-04T09:12:53Z</time>
      </trkpt>
      <trkpt lat="42.78034" lon="1.64793">
        <ele>1168.8</ele>
        <time>2019-06-04T09:12:53Z</time>
      </trkpt>
      <trkpt lat="42.78043" lon="1.6478">
        <ele>1167.8</ele>
        <time>2019-06-04T09:12:53Z</time>
      </trkpt>
      <trkpt lat="42.78053" lon="1.64768">
        <ele>1166.1</ele>
        <time>2019-06-04T09:12:53Z</time>
      </trkpt>
      <trkpt lat="42.78063" lon="1.64756">
        <ele>1163.9</ele>
        <time>2019-06-04T09:12:53Z</time>
      </trkpt>
      <trkpt lat="42.78071" lon="1.64743">
        <ele>1161.8</ele>
        <time>2019-06-04T09:12:53Z</time>
      </trkpt>
      <trkpt lat="42.78075" lon="1.64729">
        <ele>1159.1</ele>
        <time>2019-06-04T09:12:53Z</time>
      </trkpt>
      <trkpt lat="42.78078" lon="1.64715">
        <ele>1156.1</ele>
        <time>2019-06-04T09:12:53Z</time>
      </trkpt>
      <trkpt lat="42.78083" lon="1.647">
        <ele>1152</ele>
        <time>2019-06-04T09:12:53Z</time>
      </trkpt>
      <trkpt lat="42.78094" lon="1.64686">
        <ele>1148.8</ele>
        <time>2019-06-04T09:12:53Z</time>
      </trkpt>
      <trkpt lat="42.78103" lon="1.64666">
        <ele>1143.9</ele>
        <time>2019-06-04T09:12:53Z</time>
      </trkpt>
      <trkpt lat="42.78113" lon="1.64647">
        <ele>1141.5</ele>
        <time>2019-06-04T09:12:53Z</time>
      </trkpt>
      <trkpt lat="42.78121" lon="1.64624">
        <ele>1137.8</ele>
        <time>2019-06-04T09:12:53Z</time>
      </trkpt>
      <trkpt lat="42.78129" lon="1.64601">
        <ele>1132.7</ele>
        <time>2019-06-04T09:12:53Z</time>
      </trkpt>
      <trkpt lat="42.78138" lon="1.6458">
        <ele>1127.3</ele>
        <time>2019-06-04T09:12:53Z</time>
      </trkpt>
      <trkpt lat="42.78145" lon="1.64559">
        <ele>1124.7</ele>
        <time>2019-06-04T09:12:53Z</time>
      </trkpt>
      <trkpt lat="42.78147" lon="1.64541">
        <ele>1123.7</ele>
        <time>2019-06-04T09:12:53Z</time>
      </trkpt>
      <trkpt lat="42.78156" lon="1.64527">
        <ele>1119.5</ele>
        <time>2019-06-04T09:12:53Z</time>
      </trkpt>
      <trkpt lat="42.78165" lon="1.64511">
        <ele>1114.6</ele>
        <time>2019-06-04T09:12:53Z</time>
      </trkpt>
      <trkpt lat="42.78173" lon="1.64492">
        <ele>1110.4</ele>
        <time>2019-06-04T09:12:53Z</time>
      </trkpt>
      <trkpt lat="42.78181" lon="1.64471">
        <ele>1106.6</ele>
        <time>2019-06-04T09:12:53Z</time>
      </trkpt>
      <trkpt lat="42.78187" lon="1.64448">
        <ele>1103.2</ele>
        <time>2019-06-04T09:12:53Z</time>
      </trkpt>
      <trkpt lat="42.78192" lon="1.64416">
        <ele>1100.3</ele>
        <time>2019-06-04T09:12:53Z</time>
      </trkpt>
      <trkpt lat="42.78196" lon="1.64383">
        <ele>1103.4</ele>
        <time>2019-06-04T09:12:53Z</time>
      </trkpt>
      <trkpt lat="42.78201" lon="1.64356">
        <ele>1105.2</ele>
        <time>2019-06-04T09:12:53Z</time>
      </trkpt>
      <trkpt lat="42.78211" lon="1.64334">
        <ele>1103.6</ele>
        <time>2019-06-04T09:12:53Z</time>
      </trkpt>
      <trkpt lat="42.78224" lon="1.64318">
        <ele>1099.2</ele>
        <time>2019-06-04T09:12:53Z</time>
      </trkpt>
      <trkpt lat="42.7824" lon="1.64309">
        <ele>1092.5</ele>
        <time>2019-06-04T09:12:53Z</time>
      </trkpt>
      <trkpt lat="42.78251" lon="1.64298">
        <ele>1088.1</ele>
        <time>2019-06-04T09:12:53Z</time>
      </trkpt>
      <trkpt lat="42.78257" lon="1.6427">
        <ele>1089</ele>
        <time>2019-06-04T09:12:53Z</time>
      </trkpt>
      <trkpt lat="42.78261" lon="1.64244">
        <ele>1091.2</ele>
        <time>2019-06-04T09:12:53Z</time>
      </trkpt>
      <trkpt lat="42.7827" lon="1.64225">
        <ele>1090.4</ele>
        <time>2019-06-04T09:12:53Z</time>
      </trkpt>
      <trkpt lat="42.78285" lon="1.64215">
        <ele>1085.1</ele>
        <time>2019-06-04T09:12:53Z</time>
      </trkpt>
      <trkpt lat="42.783" lon="1.64198">
        <ele>1080.5</ele>
        <time>2019-06-04T09:12:53Z</time>
      </trkpt>
      <trkpt lat="42.78316" lon="1.64182">
        <ele>1076.2</ele>
        <time>2019-06-04T09:12:53Z</time>
      </trkpt>
      <trkpt lat="42.78329" lon="1.64162">
        <ele>1074.1</ele>
        <time>2019-06-04T09:12:53Z</time>
      </trkpt>
      <trkpt lat="42.78342" lon="1.64142">
        <ele>1070.3</ele>
        <time>2019-06-04T09:12:53Z</time>
      </trkpt>
      <trkpt lat="42.78353" lon="1.64123">
        <ele>1067.2</ele>
        <time>2019-06-04T09:12:53Z</time>
      </trkpt>
      <trkpt lat="42.78359" lon="1.64103">
        <ele>1067.4</ele>
        <time>2019-06-04T09:12:53Z</time>
      </trkpt>
      <trkpt lat="42.78362" lon="1.64081">
        <ele>1070.2</ele>
        <time>2019-06-04T09:12:53Z</time>
      </trkpt>
      <trkpt lat="42.78359" lon="1.64059">
        <ele>1071.8</ele>
        <time>2019-06-04T09:12:53Z</time>
      </trkpt>
      <trkpt lat="42.7835" lon="1.64041">
        <ele>1076.4</ele>
        <time>2019-06-04T09:12:53Z</time>
      </trkpt>
      <trkpt lat="42.78339" lon="1.64025">
        <ele>1082.1</ele>
        <time>2019-06-04T09:12:53Z</time>
      </trkpt>
      <trkpt lat="42.78325" lon="1.64012">
        <ele>1086.8</ele>
        <time>2019-06-04T09:12:53Z</time>
      </trkpt>
      <trkpt lat="42.78311" lon="1.63999">
        <ele>1089.4</ele>
        <time>2019-06-04T09:12:53Z</time>
      </trkpt>
      <trkpt lat="42.78297" lon="1.63986">
        <ele>1089</ele>
        <time>2019-06-04T09:12:53Z</time>
      </trkpt>
      <trkpt lat="42.78284" lon="1.63972">
        <ele>1088.4</ele>
        <time>2019-06-04T09:12:53Z</time>
      </trkpt>
      <trkpt lat="42.7827" lon="1.63959">
        <ele>1088.4</ele>
        <time>2019-06-04T09:12:53Z</time>
      </trkpt>
      <trkpt lat="42.78254" lon="1.63947">
        <ele>1089.5</ele>
        <time>2019-06-04T09:12:53Z</time>
      </trkpt>
      <trkpt lat="42.78241" lon="1.63932">
        <ele>1088.7</ele>
        <time>2019-06-04T09:12:53Z</time>
      </trkpt>
      <trkpt lat="42.78229" lon="1.63915">
        <ele>1086.4</ele>
        <time>2019-06-04T09:12:53Z</time>
      </trkpt>
      <trkpt lat="42.78216" lon="1.63898">
        <ele>1084.7</ele>
        <time>2019-06-04T09:12:53Z</time>
      </trkpt>
      <trkpt lat="42.78204" lon="1.63878">
        <ele>1082.5</ele>
        <time>2019-06-04T09:12:53Z</time>
      </trkpt>
      <trkpt lat="42.78196" lon="1.63858">
        <ele>1079.1</ele>
        <time>2019-06-04T09:12:53Z</time>
      </trkpt>
      <trkpt lat="42.78188" lon="1.63837">
        <ele>1075.9</ele>
        <time>2019-06-04T09:12:53Z</time>
      </trkpt>
      <trkpt lat="42.78179" lon="1.63816">
        <ele>1073.4</ele>
        <time>2019-06-04T09:12:53Z</time>
      </trkpt>
      <trkpt lat="42.78171" lon="1.63796">
        <ele>1071.1</ele>
        <time>2019-06-04T09:12:53Z</time>
      </trkpt>
      <trkpt lat="42.78163" lon="1.63775">
        <ele>1068.9</ele>
        <time>2019-06-04T09:12:53Z</time>
      </trkpt>
      <trkpt lat="42.78154" lon="1.63755">
        <ele>1067</ele>
        <time>2019-06-04T09:12:53Z</time>
      </trkpt>
      <trkpt lat="42.78149" lon="1.6373">
        <ele>1063.9</ele>
        <time>2019-06-04T09:12:53Z</time>
      </trkpt>
      <trkpt lat="42.78147" lon="1.63702">
        <ele>1059.5</ele>
        <time>2019-06-04T09:12:53Z</time>
      </trkpt>
      <trkpt lat="42.78148" lon="1.63677">
        <ele>1054.3</ele>
        <time>2019-06-04T09:12:53Z</time>
      </trkpt>
      <trkpt lat="42.7815" lon="1.63652">
        <ele>1052.5</ele>
        <time>2019-06-04T09:12:53Z</time>
      </trkpt>
      <trkpt lat="42.78154" lon="1.6363">
        <ele>1051.9</ele>
        <time>2019-06-04T09:12:53Z</time>
      </trkpt>
      <trkpt lat="42.78159" lon="1.63611">
        <ele>1051.1</ele>
        <time>2019-06-04T09:12:53Z</time>
      </trkpt>
      <trkpt lat="42.78172" lon="1.63594">
        <ele>1048</ele>
        <time>2019-06-04T09:12:53Z</time>
      </trkpt>
      <trkpt lat="42.78184" lon="1.63579">
        <ele>1046.6</ele>
        <time>2019-06-04T09:12:53Z</time>
      </trkpt>
      <trkpt lat="42.78197" lon="1.63563">
        <ele>1047.1</ele>
        <time>2019-06-04T09:12:53Z</time>
      </trkpt>
      <trkpt lat="42.78211" lon="1.6355">
        <ele>1047</ele>
        <time>2019-06-04T09:12:53Z</time>
      </trkpt>
      <trkpt lat="42.78225" lon="1.63542">
        <ele>1045.3</ele>
        <time>2019-06-04T09:12:53Z</time>
      </trkpt>
      <trkpt lat="42.78239" lon="1.63533">
        <ele>1044</ele>
        <time>2019-06-04T09:12:53Z</time>
      </trkpt>
      <trkpt lat="42.78254" lon="1.63525">
        <ele>1042.3</ele>
        <time>2019-06-04T09:12:53Z</time>
      </trkpt>
      <trkpt lat="42.78267" lon="1.63516">
        <ele>1040.7</ele>
        <time>2019-06-04T09:12:53Z</time>
      </trkpt>
      <trkpt lat="42.78281" lon="1.63507">
        <ele>1039.5</ele>
        <time>2019-06-04T09:12:53Z</time>
      </trkpt>
      <trkpt lat="42.78295" lon="1.63498">
        <ele>1038.1</ele>
        <time>2019-06-04T09:12:53Z</time>
      </trkpt>
      <trkpt lat="42.78308" lon="1.63489">
        <ele>1035.7</ele>
        <time>2019-06-04T09:12:53Z</time>
      </trkpt>
      <trkpt lat="42.78322" lon="1.6348">
        <ele>1033.2</ele>
        <time>2019-06-04T09:12:53Z</time>
      </trkpt>
      <trkpt lat="42.78335" lon="1.63469">
        <ele>1030.9</ele>
        <time>2019-06-04T09:12:53Z</time>
      </trkpt>
      <trkpt lat="42.7835" lon="1.63461">
        <ele>1027.7</ele>
        <time>2019-06-04T09:12:53Z</time>
      </trkpt>
      <trkpt lat="42.78364" lon="1.63453">
        <ele>1024.8</ele>
        <time>2019-06-04T09:12:53Z</time>
      </trkpt>
      <trkpt lat="42.78378" lon="1.63443">
        <ele>1022.5</ele>
        <time>2019-06-04T09:12:53Z</time>
      </trkpt>
      <trkpt lat="42.78393" lon="1.63433">
        <ele>1020.4</ele>
        <time>2019-06-04T09:12:53Z</time>
      </trkpt>
      <trkpt lat="42.78407" lon="1.63422">
        <ele>1018.5</ele>
        <time>2019-06-04T09:12:53Z</time>
      </trkpt>
      <trkpt lat="42.78422" lon="1.63412">
        <ele>1016.6</ele>
        <time>2019-06-04T09:12:53Z</time>
      </trkpt>
      <trkpt lat="42.78436" lon="1.63402">
        <ele>1014.4</ele>
        <time>2019-06-04T09:12:53Z</time>
      </trkpt>
      <trkpt lat="42.7845" lon="1.63392">
        <ele>1012.3</ele>
        <time>2019-06-04T09:12:53Z</time>
      </trkpt>
      <trkpt lat="42.78465" lon="1.63381">
        <ele>1010</ele>
        <time>2019-06-04T09:12:53Z</time>
      </trkpt>
      <trkpt lat="42.78479" lon="1.63371">
        <ele>1008.2</ele>
        <time>2019-06-04T09:12:53Z</time>
      </trkpt>
      <trkpt lat="42.78493" lon="1.63361">
        <ele>1006.5</ele>
        <time>2019-06-04T09:12:53Z</time>
      </trkpt>
      <trkpt lat="42.78508" lon="1.63351">
        <ele>1006.5</ele>
        <time>2019-06-04T09:12:53Z</time>
      </trkpt>
      <trkpt lat="42.78522" lon="1.63338">
        <ele>1009</ele>
        <time>2019-06-04T09:12:53Z</time>
      </trkpt>
      <trkpt lat="42.78536" lon="1.63326">
        <ele>1011.9</ele>
        <time>2019-06-04T09:12:53Z</time>
      </trkpt>
      <trkpt lat="42.78551" lon="1.63314">
        <ele>1015.9</ele>
        <time>2019-06-04T09:12:53Z</time>
      </trkpt>
      <trkpt lat="42.78565" lon="1.63304">
        <ele>1018.6</ele>
        <time>2019-06-04T09:12:53Z</time>
      </trkpt>
      <trkpt lat="42.78577" lon="1.63293">
        <ele>1022.3</ele>
        <time>2019-06-04T09:12:53Z</time>
      </trkpt>
      <trkpt lat="42.78588" lon="1.63277">
        <ele>1029.7</ele>
        <time>2019-06-04T09:12:53Z</time>
      </trkpt>
      <trkpt lat="42.786" lon="1.6326">
        <ele>1038.2</ele>
        <time>2019-06-04T09:12:53Z</time>
      </trkpt>
      <trkpt lat="42.78611" lon="1.63248">
        <ele>1044.7</ele>
        <time>2019-06-04T09:12:53Z</time>
      </trkpt>
      <trkpt lat="42.78624" lon="1.63249">
        <ele>1045.5</ele>
        <time>2019-06-04T09:12:53Z</time>
      </trkpt>
      <trkpt lat="42.78632" lon="1.63261">
        <ele>1041.4</ele>
        <time>2019-06-04T09:12:53Z</time>
      </trkpt>
      <trkpt lat="42.78637" lon="1.63277">
        <ele>1035.3</ele>
        <time>2019-06-04T09:12:53Z</time>
      </trkpt>
      <trkpt lat="42.78644" lon="1.63293">
        <ele>1028.8</ele>
        <time>2019-06-04T09:12:53Z</time>
      </trkpt>
      <trkpt lat="42.78663" lon="1.63294">
        <ele>1030.5</ele>
        <time>2019-06-04T09:12:53Z</time>
      </trkpt>
      <trkpt lat="42.78678" lon="1.63303">
        <ele>1029.4</ele>
        <time>2019-06-04T09:12:53Z</time>
      </trkpt>
      <trkpt lat="42.78692" lon="1.63314">
        <ele>1026.8</ele>
        <time>2019-06-04T09:12:53Z</time>
      </trkpt>
      <trkpt lat="42.78715" lon="1.63322">
        <ele>1027.4</ele>
        <time>2019-06-04T09:12:53Z</time>
      </trkpt>
      <trkpt lat="42.7874" lon="1.63331">
        <ele>1027.5</ele>
        <time>2019-06-04T09:12:53Z</time>
      </trkpt>
      <trkpt lat="42.78764" lon="1.63341">
        <ele>1027.2</ele>
        <time>2019-06-04T09:12:53Z</time>
      </trkpt>
      <trkpt lat="42.78784" lon="1.63353">
        <ele>1025.9</ele>
        <time>2019-06-04T09:12:53Z</time>
      </trkpt>
      <trkpt lat="42.78805" lon="1.63367">
        <ele>1024</ele>
        <time>2019-06-04T09:12:53Z</time>
      </trkpt>
      <trkpt lat="42.78827" lon="1.63377">
        <ele>1024.4</ele>
        <time>2019-06-04T09:12:53Z</time>
      </trkpt>
      <trkpt lat="42.78847" lon="1.63403">
        <ele>1016.3</ele>
        <time>2019-06-04T09:12:53Z</time>
      </trkpt>
      <trkpt lat="42.78869" lon="1.63424">
        <ele>1010.8</ele>
        <time>2019-06-04T09:12:53Z</time>
      </trkpt>
      <trkpt lat="42.78887" lon="1.6344">
        <ele>1006.6</ele>
        <time>2019-06-04T09:12:53Z</time>
      </trkpt>
      <trkpt lat="42.78906" lon="1.63447">
        <ele>1007</ele>
        <time>2019-06-04T09:12:53Z</time>
      </trkpt>
      <trkpt lat="42.78926" lon="1.63453">
        <ele>1006</ele>
        <time>2019-06-04T09:12:53Z</time>
      </trkpt>
      <trkpt lat="42.78943" lon="1.63466">
        <ele>1000.4</ele>
        <time>2019-06-04T09:12:53Z</time>
      </trkpt>
      <trkpt lat="42.78954" lon="1.63488">
        <ele>992.3</ele>
        <time>2019-06-04T09:12:53Z</time>
      </trkpt>
      <trkpt lat="42.78966" lon="1.63508">
        <ele>985.5</ele>
        <time>2019-06-04T09:12:53Z</time>
      </trkpt>
      <trkpt lat="42.78982" lon="1.63521">
        <ele>980.8</ele>
        <time>2019-06-04T09:12:53Z</time>
      </trkpt>
      <trkpt lat="42.78999" lon="1.63532">
        <ele>977.3</ele>
        <time>2019-06-04T09:12:53Z</time>
      </trkpt>
      <trkpt lat="42.79016" lon="1.63544">
        <ele>968.8</ele>
        <time>2019-06-04T09:12:53Z</time>
      </trkpt>
      <trkpt lat="42.79035" lon="1.6356">
        <ele>959</ele>
        <time>2019-06-04T09:12:53Z</time>
      </trkpt>
      <trkpt lat="42.79055" lon="1.6358">
        <ele>950</ele>
        <time>2019-06-04T09:12:53Z</time>
      </trkpt>
      <trkpt lat="42.79075" lon="1.63594">
        <ele>941.9</ele>
        <time>2019-06-04T09:12:53Z</time>
      </trkpt>
      <trkpt lat="42.79094" lon="1.63602">
        <ele>934</ele>
        <time>2019-06-04T09:12:53Z</time>
      </trkpt>
      <trkpt lat="42.79115" lon="1.63594">
        <ele>928.8</ele>
        <time>2019-06-04T09:12:53Z</time>
      </trkpt>
      <trkpt lat="42.79135" lon="1.63581">
        <ele>925.4</ele>
        <time>2019-06-04T09:12:53Z</time>
      </trkpt>
      <trkpt lat="42.79155" lon="1.63565">
        <ele>920.9</ele>
        <time>2019-06-04T09:12:53Z</time>
      </trkpt>
      <trkpt lat="42.79172" lon="1.63541">
        <ele>918.4</ele>
        <time>2019-06-04T09:12:53Z</time>
      </trkpt>
      <trkpt lat="42.79186" lon="1.6351">
        <ele>917</ele>
        <time>2019-06-04T09:12:53Z</time>
      </trkpt>
      <trkpt lat="42.792" lon="1.63478">
        <ele>915.1</ele>
        <time>2019-06-04T09:12:53Z</time>
      </trkpt>
      <trkpt lat="42.79213" lon="1.63443">
        <ele>913.1</ele>
        <time>2019-06-04T09:12:53Z</time>
      </trkpt>
      <trkpt lat="42.79225" lon="1.63414">
        <ele>911.6</ele>
        <time>2019-06-04T09:12:53Z</time>
      </trkpt>
      <trkpt lat="42.79239" lon="1.63387">
        <ele>910.4</ele>
        <time>2019-06-04T09:12:53Z</time>
      </trkpt>
      <trkpt lat="42.79254" lon="1.63359">
        <ele>910.5</ele>
        <time>2019-06-04T09:12:53Z</time>
      </trkpt>
      <trkpt lat="42.79267" lon="1.63333">
        <ele>912.5</ele>
        <time>2019-06-04T09:12:53Z</time>
      </trkpt>
      <trkpt lat="42.7928" lon="1.63308">
        <ele>914.9</ele>
        <time>2019-06-04T09:12:53Z</time>
      </trkpt>
      <trkpt lat="42.79291" lon="1.63275">
        <ele>919.3</ele>
        <time>2019-06-04T09:12:53Z</time>
      </trkpt>
      <trkpt lat="42.79302" lon="1.63242">
        <ele>924.4</ele>
        <time>2019-06-04T09:12:53Z</time>
      </trkpt>
      <trkpt lat="42.79315" lon="1.63225">
        <ele>926.8</ele>
        <time>2019-06-04T09:12:53Z</time>
      </trkpt>
      <trkpt lat="42.79337" lon="1.63215">
        <ele>927.1</ele>
        <time>2019-06-04T09:12:53Z</time>
      </trkpt>
      <trkpt lat="42.79359" lon="1.63204">
        <ele>929</ele>
        <time>2019-06-04T09:12:53Z</time>
      </trkpt>
      <trkpt lat="42.79385" lon="1.63198">
        <ele>930.2</ele>
        <time>2019-06-04T09:12:53Z</time>
      </trkpt>
      <trkpt lat="42.79411" lon="1.63194">
        <ele>931.4</ele>
        <time>2019-06-04T09:12:53Z</time>
      </trkpt>
      <trkpt lat="42.79432" lon="1.63194">
        <ele>931.8</ele>
        <time>2019-06-04T09:12:53Z</time>
      </trkpt>
      <trkpt lat="42.79443" lon="1.63212">
        <ele>927.6</ele>
        <time>2019-06-04T09:12:53Z</time>
      </trkpt>
      <trkpt lat="42.79458" lon="1.63224">
        <ele>924.5</ele>
        <time>2019-06-04T09:12:53Z</time>
      </trkpt>
      <trkpt lat="42.79479" lon="1.63221">
        <ele>925.3</ele>
        <time>2019-06-04T09:12:53Z</time>
      </trkpt>
      <trkpt lat="42.79499" lon="1.63213">
        <ele>927.8</ele>
        <time>2019-06-04T09:12:53Z</time>
      </trkpt>
      <trkpt lat="42.79521" lon="1.63203">
        <ele>930.9</ele>
        <time>2019-06-04T09:12:53Z</time>
      </trkpt>
      <trkpt lat="42.7954" lon="1.63199">
        <ele>932.4</ele>
        <time>2019-06-04T09:12:53Z</time>
      </trkpt>
      <trkpt lat="42.7956" lon="1.6321">
        <ele>929.7</ele>
        <time>2019-06-04T09:12:53Z</time>
      </trkpt>
      <trkpt lat="42.79579" lon="1.63215">
        <ele>928.6</ele>
        <time>2019-06-04T09:12:53Z</time>
      </trkpt>
      <trkpt lat="42.79606" lon="1.63215">
        <ele>926.4</ele>
        <time>2019-06-04T09:12:53Z</time>
      </trkpt>
      <trkpt lat="42.79633" lon="1.63215">
        <ele>923.7</ele>
        <time>2019-06-04T09:12:53Z</time>
      </trkpt>
      <trkpt lat="42.79656" lon="1.63219">
        <ele>920.9</ele>
        <time>2019-06-04T09:12:53Z</time>
      </trkpt>
      <trkpt lat="42.79678" lon="1.63224">
        <ele>917</ele>
        <time>2019-06-04T09:12:53Z</time>
      </trkpt>
      <trkpt lat="42.79698" lon="1.63225">
        <ele>914.4</ele>
        <time>2019-06-04T09:12:53Z</time>
      </trkpt>
      <trkpt lat="42.79716" lon="1.63222">
        <ele>913.1</ele>
        <time>2019-06-04T09:12:53Z</time>
      </trkpt>
      <trkpt lat="42.79731" lon="1.63206">
        <ele>914.4</ele>
        <time>2019-06-04T09:12:53Z</time>
      </trkpt>
      <trkpt lat="42.79745" lon="1.63183">
        <ele>916.8</ele>
        <time>2019-06-04T09:12:53Z</time>
      </trkpt>
      <trkpt lat="42.79759" lon="1.63161">
        <ele>920.8</ele>
        <time>2019-06-04T09:12:53Z</time>
      </trkpt>
      <trkpt lat="42.79776" lon="1.6315">
        <ele>923.4</ele>
        <time>2019-06-04T09:12:53Z</time>
      </trkpt>
      <trkpt lat="42.79792" lon="1.63134">
        <ele>926.8</ele>
        <time>2019-06-04T09:12:53Z</time>
      </trkpt>
      <trkpt lat="42.79807" lon="1.63121">
        <ele>929.4</ele>
        <time>2019-06-04T09:12:53Z</time>
      </trkpt>
      <trkpt lat="42.79823" lon="1.63117">
        <ele>929.4</ele>
        <time>2019-06-04T09:12:53Z</time>
      </trkpt>
      <trkpt lat="42.79835" lon="1.63115">
        <ele>929</ele>
        <time>2019-06-04T09:12:53Z</time>
      </trkpt>
      <trkpt lat="42.79849" lon="1.63124">
        <ele>927.3</ele>
        <time>2019-06-04T09:12:53Z</time>
      </trkpt>
      <trkpt lat="42.7986" lon="1.63134">
        <ele>925.5</ele>
        <time>2019-06-04T09:12:53Z</time>
      </trkpt>
      <trkpt lat="42.79873" lon="1.63141">
        <ele>924.5</ele>
        <time>2019-06-04T09:12:53Z</time>
      </trkpt>
      <trkpt lat="42.79886" lon="1.6314">
        <ele>924.9</ele>
        <time>2019-06-04T09:12:53Z</time>
      </trkpt>
      <trkpt lat="42.799" lon="1.63146">
        <ele>924</ele>
        <time>2019-06-04T09:12:53Z</time>
      </trkpt>
      <trkpt lat="42.79914" lon="1.63155">
        <ele>923</ele>
        <time>2019-06-04T09:12:53Z</time>
      </trkpt>
      <trkpt lat="42.79924" lon="1.63167">
        <ele>921.7</ele>
        <time>2019-06-04T09:12:53Z</time>
      </trkpt>
      <trkpt lat="42.79933" lon="1.63181">
        <ele>919.6</ele>
        <time>2019-06-04T09:12:53Z</time>
      </trkpt>
      <trkpt lat="42.79934" lon="1.63201">
        <ele>915.4</ele>
        <time>2019-06-04T09:12:53Z</time>
      </trkpt>
      <trkpt lat="42.79934" lon="1.63221">
        <ele>911.3</ele>
        <time>2019-06-04T09:12:53Z</time>
      </trkpt>
      <trkpt lat="42.79931" lon="1.63234">
        <ele>908</ele>
        <time>2019-06-04T09:12:53Z</time>
      </trkpt>
      <trkpt lat="42.79928" lon="1.63234">
        <ele>990</ele>
        <time>2019-05-29T10:33:21Z</time>
      </trkpt>
      <trkpt lat="42.79927" lon="1.63196">
        <ele>961</ele>
        <time>2019-05-29T10:39:48Z</time>
      </trkpt>
      <trkpt lat="42.79911" lon="1.63166">
        <ele>963</ele>
        <time>2019-05-29T10:40:31Z</time>
      </trkpt>
      <trkpt lat="42.79887" lon="1.63147">
        <ele>965</ele>
        <time>2019-05-29T10:41:00Z</time>
      </trkpt>
      <trkpt lat="42.79859" lon="1.63147">
        <ele>967</ele>
        <time>2019-05-29T10:41:22Z</time>
      </trkpt>
      <trkpt lat="42.79835" lon="1.6313">
        <ele>969</ele>
        <time>2019-05-29T10:41:52Z</time>
      </trkpt>
      <trkpt lat="42.7985" lon="1.63098">
        <ele>972</ele>
        <time>2019-05-29T10:42:57Z</time>
      </trkpt>
      <trkpt lat="42.79854" lon="1.63061">
        <ele>974</ele>
        <time>2019-05-29T10:44:06Z</time>
      </trkpt>
      <trkpt lat="42.79846" lon="1.63025">
        <ele>976</ele>
        <time>2019-05-29T10:44:47Z</time>
      </trkpt>
      <trkpt lat="42.79839" lon="1.62989">
        <ele>978</ele>
        <time>2019-05-29T10:45:48Z</time>
      </trkpt>
      <trkpt lat="42.79822" lon="1.62961">
        <ele>983</ele>
        <time>2019-05-29T10:46:30Z</time>
      </trkpt>
      <trkpt lat="42.79794" lon="1.62966">
        <ele>989</ele>
        <time>2019-05-29T10:47:04Z</time>
      </trkpt>
      <trkpt lat="42.79807" lon="1.62933">
        <ele>1002</ele>
        <time>2019-05-29T10:49:26Z</time>
      </trkpt>
      <trkpt lat="42.79817" lon="1.62899">
        <ele>1004</ele>
        <time>2019-05-29T10:49:57Z</time>
      </trkpt>
      <trkpt lat="42.79826" lon="1.62863">
        <ele>1006</ele>
        <time>2019-05-29T10:50:21Z</time>
      </trkpt>
      <trkpt lat="42.79835" lon="1.62827">
        <ele>1007</ele>
        <time>2019-05-29T10:50:47Z</time>
      </trkpt>
      <trkpt lat="42.79858" lon="1.62806">
        <ele>1009</ele>
        <time>2019-05-29T10:51:19Z</time>
      </trkpt>
      <trkpt lat="42.79883" lon="1.62791">
        <ele>1010</ele>
        <time>2019-05-29T10:51:46Z</time>
      </trkpt>
      <trkpt lat="42.79912" lon="1.62799">
        <ele>1012</ele>
        <time>2019-05-29T10:52:07Z</time>
      </trkpt>
      <trkpt lat="42.7994" lon="1.62796">
        <ele>1014</ele>
        <time>2019-05-29T10:52:26Z</time>
      </trkpt>
      <trkpt lat="42.79966" lon="1.62785">
        <ele>1020</ele>
        <time>2019-05-29T10:52:57Z</time>
      </trkpt>
      <trkpt lat="42.7999" lon="1.62768">
        <ele>1026</ele>
        <time>2019-05-29T10:53:24Z</time>
      </trkpt>
      <trkpt lat="42.80015" lon="1.62752">
        <ele>1031</ele>
        <time>2019-05-29T10:53:48Z</time>
      </trkpt>
      <trkpt lat="42.80042" lon="1.62745">
        <ele>1037</ele>
        <time>2019-05-29T10:54:19Z</time>
      </trkpt>
      <trkpt lat="42.80069" lon="1.62748">
        <ele>1041</ele>
        <time>2019-05-29T10:54:41Z</time>
      </trkpt>
      <trkpt lat="42.80089" lon="1.62774">
        <ele>1044</ele>
        <time>2019-05-29T10:55:10Z</time>
      </trkpt>
      <trkpt lat="42.80106" lon="1.62802">
        <ele>1048</ele>
        <time>2019-05-29T10:55:38Z</time>
      </trkpt>
      <trkpt lat="42.80099" lon="1.62766">
        <ele>1054</ele>
        <time>2019-05-29T10:56:12Z</time>
      </trkpt>
      <trkpt lat="42.80085" lon="1.62734">
        <ele>1059</ele>
        <time>2019-05-29T10:56:36Z</time>
      </trkpt>
      <trkpt lat="42.80062" lon="1.62713">
        <ele>1063</ele>
        <time>2019-05-29T10:56:57Z</time>
      </trkpt>
      <trkpt lat="42.80037" lon="1.62697">
        <ele>1066</ele>
        <time>2019-05-29T10:57:25Z</time>
      </trkpt>
      <trkpt lat="42.80017" lon="1.62672">
        <ele>1068</ele>
        <time>2019-05-29T10:57:49Z</time>
      </trkpt>
      <trkpt lat="42.8" lon="1.62642">
        <ele>1070</ele>
        <time>2019-05-29T10:58:13Z</time>
      </trkpt>
      <trkpt lat="42.79976" lon="1.62623">
        <ele>1072</ele>
        <time>2019-05-29T10:58:48Z</time>
      </trkpt>
      <trkpt lat="42.7995" lon="1.62609">
        <ele>1074</ele>
        <time>2019-05-29T10:59:23Z</time>
      </trkpt>
      <trkpt lat="42.79923" lon="1.62616">
        <ele>1075</ele>
        <time>2019-05-29T10:59:55Z</time>
      </trkpt>
      <trkpt lat="42.79896" lon="1.62622">
        <ele>1076</ele>
        <time>2019-05-29T11:00:22Z</time>
      </trkpt>
      <trkpt lat="42.7987" lon="1.62636">
        <ele>1078</ele>
        <time>2019-05-29T11:00:43Z</time>
      </trkpt>
      <trkpt lat="42.79843" lon="1.6264">
        <ele>1079</ele>
        <time>2019-05-29T11:01:10Z</time>
      </trkpt>
      <trkpt lat="42.79816" lon="1.62643">
        <ele>1081</ele>
        <time>2019-05-29T11:01:34Z</time>
      </trkpt>
      <trkpt lat="42.79788" lon="1.62649">
        <ele>1083</ele>
        <time>2019-05-29T11:02:11Z</time>
      </trkpt>
      <trkpt lat="42.7976" lon="1.62653">
        <ele>1085</ele>
        <time>2019-05-29T11:02:39Z</time>
      </trkpt>
      <trkpt lat="42.79732" lon="1.62659">
        <ele>1086</ele>
        <time>2019-05-29T11:03:02Z</time>
      </trkpt>
      <trkpt lat="42.79712" lon="1.62684">
        <ele>1088</ele>
        <time>2019-05-29T11:03:32Z</time>
      </trkpt>
      <trkpt lat="42.7973" lon="1.62656">
        <ele>1093</ele>
        <time>2019-05-29T11:04:34Z</time>
      </trkpt>
      <trkpt lat="42.79756" lon="1.62645">
        <ele>1095</ele>
        <time>2019-05-29T11:05:01Z</time>
      </trkpt>
      <trkpt lat="42.79779" lon="1.62624">
        <ele>1097</ele>
        <time>2019-05-29T11:05:30Z</time>
      </trkpt>
      <trkpt lat="42.79804" lon="1.62611">
        <ele>1099</ele>
        <time>2019-05-29T11:05:57Z</time>
      </trkpt>
      <trkpt lat="42.79825" lon="1.62586">
        <ele>1107</ele>
        <time>2019-05-29T11:07:48Z</time>
      </trkpt>
      <trkpt lat="42.79843" lon="1.62559">
        <ele>1109</ele>
        <time>2019-05-29T11:08:14Z</time>
      </trkpt>
      <trkpt lat="42.79859" lon="1.62527">
        <ele>1111</ele>
        <time>2019-05-29T11:08:42Z</time>
      </trkpt>
      <trkpt lat="42.79876" lon="1.62498">
        <ele>1114</ele>
        <time>2019-05-29T11:09:06Z</time>
      </trkpt>
      <trkpt lat="42.79897" lon="1.62473">
        <ele>1116</ele>
        <time>2019-05-29T11:09:35Z</time>
      </trkpt>
      <trkpt lat="42.79921" lon="1.62455">
        <ele>1118</ele>
        <time>2019-05-29T11:10:01Z</time>
      </trkpt>
      <trkpt lat="42.79948" lon="1.62452">
        <ele>1119</ele>
        <time>2019-05-29T11:10:28Z</time>
      </trkpt>
      <trkpt lat="42.79976" lon="1.62457">
        <ele>1122</ele>
        <time>2019-05-29T11:10:58Z</time>
      </trkpt>
      <trkpt lat="42.80003" lon="1.62458">
        <ele>1127</ele>
        <time>2019-05-29T11:11:57Z</time>
      </trkpt>
      <trkpt lat="42.80009" lon="1.62422">
        <ele>1138</ele>
        <time>2019-05-29T11:17:01Z</time>
      </trkpt>
      <trkpt lat="42.80024" lon="1.62391">
        <ele>1140</ele>
        <time>2019-05-29T11:17:30Z</time>
      </trkpt>
      <trkpt lat="42.8004" lon="1.62359">
        <ele>1141</ele>
        <time>2019-05-29T11:18:02Z</time>
      </trkpt>
      <trkpt lat="42.80058" lon="1.62331">
        <ele>1142</ele>
        <time>2019-05-29T11:18:30Z</time>
      </trkpt>
      <trkpt lat="42.80061" lon="1.62293">
        <ele>1143</ele>
        <time>2019-05-29T11:19:14Z</time>
      </trkpt>
      <trkpt lat="42.80061" lon="1.62254">
        <ele>1144</ele>
        <time>2019-05-29T11:19:41Z</time>
      </trkpt>
      <trkpt lat="42.80058" lon="1.62216">
        <ele>1146</ele>
        <time>2019-05-29T11:20:15Z</time>
      </trkpt>
      <trkpt lat="42.80067" lon="1.62181">
        <ele>1147</ele>
        <time>2019-05-29T11:20:41Z</time>
      </trkpt>
      <trkpt lat="42.80088" lon="1.62157">
        <ele>1148</ele>
        <time>2019-05-29T11:21:09Z</time>
      </trkpt>
      <trkpt lat="42.80106" lon="1.62127">
        <ele>1149</ele>
        <time>2019-05-29T11:21:35Z</time>
      </trkpt>
      <trkpt lat="42.80118" lon="1.62094">
        <ele>1151</ele>
        <time>2019-05-29T11:22:06Z</time>
      </trkpt>
      <trkpt lat="42.80128" lon="1.62059">
        <ele>1153</ele>
        <time>2019-05-29T11:22:39Z</time>
      </trkpt>
      <trkpt lat="42.80134" lon="1.62022">
        <ele>1155</ele>
        <time>2019-05-29T11:23:07Z</time>
      </trkpt>
      <trkpt lat="42.80146" lon="1.61987">
        <ele>1158</ele>
        <time>2019-05-29T11:23:40Z</time>
      </trkpt>
      <trkpt lat="42.80166" lon="1.61963">
        <ele>1161</ele>
        <time>2019-05-29T11:24:07Z</time>
      </trkpt>
      <trkpt lat="42.80138" lon="1.61962">
        <ele>1165</ele>
        <time>2019-05-29T11:24:39Z</time>
      </trkpt>
      <trkpt lat="42.80125" lon="1.61995">
        <ele>1171</ele>
        <time>2019-05-29T11:25:08Z</time>
      </trkpt>
      <trkpt lat="42.80111" lon="1.62027">
        <ele>1178</ele>
        <time>2019-05-29T11:25:40Z</time>
      </trkpt>
      <trkpt lat="42.80094" lon="1.62055">
        <ele>1183</ele>
        <time>2019-05-29T11:26:08Z</time>
      </trkpt>
      <trkpt lat="42.80073" lon="1.62078">
        <ele>1188</ele>
        <time>2019-05-29T11:26:37Z</time>
      </trkpt>
      <trkpt lat="42.80066" lon="1.62098">
        <ele>1123.8</ele>
        <time>2019-05-29T09:19:11Z</time>
      </trkpt>
      <trkpt lat="42.80056" lon="1.62109">
        <ele>1191</ele>
        <time>2019-05-29T11:27:05Z</time>
      </trkpt>
      <trkpt lat="42.80038" lon="1.62138">
        <ele>1194</ele>
        <time>2019-05-29T11:27:36Z</time>
      </trkpt>
      <trkpt lat="42.80022" lon="1.62168">
        <ele>1196</ele>
        <time>2019-05-29T11:28:07Z</time>
      </trkpt>
      <trkpt lat="42.80006" lon="1.62198">
        <ele>1197</ele>
        <time>2019-05-29T11:28:35Z</time>
      </trkpt>
      <trkpt lat="42.79978" lon="1.62201">
        <ele>1198</ele>
        <time>2019-05-29T11:28:58Z</time>
      </trkpt>
      <trkpt lat="42.79952" lon="1.62212">
        <ele>1200</ele>
        <time>2019-05-29T11:29:27Z</time>
      </trkpt>
      <trkpt lat="42.79924" lon="1.62214">
        <ele>1201</ele>
        <time>2019-05-29T11:29:56Z</time>
      </trkpt>
      <trkpt lat="42.79898" lon="1.62207">
        <ele>1207</ele>
        <time>2019-05-29T11:31:30Z</time>
      </trkpt>
      <trkpt lat="42.79871" lon="1.62213">
        <ele>1209</ele>
        <time>2019-05-29T11:32:04Z</time>
      </trkpt>
      <trkpt lat="42.79845" lon="1.62202">
        <ele>1212</ele>
        <time>2019-05-29T11:32:39Z</time>
      </trkpt>
      <trkpt lat="42.79817" lon="1.62194">
        <ele>1213</ele>
        <time>2019-05-29T11:33:04Z</time>
      </trkpt>
      <trkpt lat="42.7979" lon="1.62201">
        <ele>1215</ele>
        <time>2019-05-29T11:33:33Z</time>
      </trkpt>
      <trkpt lat="42.79763" lon="1.62204">
        <ele>1216</ele>
        <time>2019-05-29T11:33:59Z</time>
      </trkpt>
      <trkpt lat="42.79736" lon="1.62198">
        <ele>1217</ele>
        <time>2019-05-29T11:34:29Z</time>
      </trkpt>
      <trkpt lat="42.79711" lon="1.62182">
        <ele>1218</ele>
        <time>2019-05-29T11:35:00Z</time>
      </trkpt>
      <trkpt lat="42.79684" lon="1.62177">
        <ele>1219</ele>
        <time>2019-05-29T11:35:21Z</time>
      </trkpt>
      <trkpt lat="42.7966" lon="1.62195">
        <ele>1220</ele>
        <time>2019-05-29T11:35:53Z</time>
      </trkpt>
      <trkpt lat="42.79633" lon="1.622">
        <ele>1222</ele>
        <time>2019-05-29T11:36:18Z</time>
      </trkpt>
      <trkpt lat="42.79606" lon="1.62191">
        <ele>1225</ele>
        <time>2019-05-29T11:36:44Z</time>
      </trkpt>
      <trkpt lat="42.79585" lon="1.62167">
        <ele>1229</ele>
        <time>2019-05-29T11:37:08Z</time>
      </trkpt>
      <trkpt lat="42.79559" lon="1.62153">
        <ele>1232</ele>
        <time>2019-05-29T11:37:30Z</time>
      </trkpt>
      <trkpt lat="42.79532" lon="1.62145">
        <ele>1235</ele>
        <time>2019-05-29T11:37:54Z</time>
      </trkpt>
      <trkpt lat="42.79504" lon="1.62144">
        <ele>1237</ele>
        <time>2019-05-29T11:38:15Z</time>
      </trkpt>
      <trkpt lat="42.79477" lon="1.62154">
        <ele>1239</ele>
        <time>2019-05-29T11:38:35Z</time>
      </trkpt>
      <trkpt lat="42.79455" lon="1.62175">
        <ele>1241</ele>
        <time>2019-05-29T11:38:54Z</time>
      </trkpt>
      <trkpt lat="42.79431" lon="1.62195">
        <ele>1243</ele>
        <time>2019-05-29T11:39:20Z</time>
      </trkpt>
      <trkpt lat="42.79408" lon="1.62214">
        <ele>1244</ele>
        <time>2019-05-29T11:39:44Z</time>
      </trkpt>
      <trkpt lat="42.79382" lon="1.62227">
        <ele>1245</ele>
        <time>2019-05-29T11:40:09Z</time>
      </trkpt>
      <trkpt lat="42.79374" lon="1.62193">
        <ele>1193.3</ele>
        <time>2019-05-29T11:40:33Z</time>
      </trkpt>
      <trkpt lat="42.79366" lon="1.62165">
        <ele>1194.8</ele>
        <time>2019-05-29T11:40:58Z</time>
      </trkpt>
      <trkpt lat="42.79356" lon="1.62135">
        <ele>1249</ele>
        <time>2019-05-29T11:41:25Z</time>
      </trkpt>
      <trkpt lat="42.79345" lon="1.62101">
        <ele>1251</ele>
        <time>2019-05-29T11:41:53Z</time>
      </trkpt>
      <trkpt lat="42.7934" lon="1.62064">
        <ele>1253</ele>
        <time>2019-05-29T11:42:21Z</time>
      </trkpt>
      <trkpt lat="42.79331" lon="1.62028">
        <ele>1255</ele>
        <time>2019-05-29T11:42:46Z</time>
      </trkpt>
      <trkpt lat="42.7932" lon="1.61994">
        <ele>1256</ele>
        <time>2019-05-29T11:43:08Z</time>
      </trkpt>
      <trkpt lat="42.79301" lon="1.61966">
        <ele>1258</ele>
        <time>2019-05-29T11:43:36Z</time>
      </trkpt>
      <trkpt lat="42.79286" lon="1.61935">
        <ele>1260</ele>
        <time>2019-05-29T11:43:59Z</time>
      </trkpt>
      <trkpt lat="42.79261" lon="1.61917">
        <ele>1262</ele>
        <time>2019-05-29T11:44:24Z</time>
      </trkpt>
      <trkpt lat="42.79235" lon="1.61906">
        <ele>1265</ele>
        <time>2019-05-29T11:44:47Z</time>
      </trkpt>
      <trkpt lat="42.79204" lon="1.61898">
        <ele>1202.1</ele>
        <time>2019-05-29T11:45:10Z</time>
      </trkpt>
      <trkpt lat="42.79183" lon="1.61911">
        <ele>1217.3</ele>
        <time>2019-05-29T11:45:29Z</time>
      </trkpt>
      <trkpt lat="42.79164" lon="1.61929">
        <ele>1230.8</ele>
        <time>2019-05-29T11:45:50Z</time>
      </trkpt>
      <trkpt lat="42.79138" lon="1.6195">
        <ele>1238.4</ele>
        <time>2019-05-29T11:46:12Z</time>
      </trkpt>
      <trkpt lat="42.7911" lon="1.61965">
        <ele>1244.8</ele>
        <time>2019-05-29T11:46:32Z</time>
      </trkpt>
      <trkpt lat="42.79084" lon="1.61994">
        <ele>1253.6</ele>
        <time>2019-05-29T11:46:53Z</time>
      </trkpt>
      <trkpt lat="42.79068" lon="1.62016">
        <ele>1253.9</ele>
        <time>2019-05-29T11:47:14Z</time>
      </trkpt>
      <trkpt lat="42.79058" lon="1.62031">
        <ele>1253.5</ele>
        <time>2019-05-29T11:47:37Z</time>
      </trkpt>
      <trkpt lat="42.79047" lon="1.62051">
        <ele>1253.8</ele>
        <time>2019-05-29T11:47:59Z</time>
      </trkpt>
      <trkpt lat="42.7904" lon="1.6208">
        <ele>1254.6</ele>
        <time>2019-05-29T11:48:20Z</time>
      </trkpt>
      <trkpt lat="42.79039" lon="1.62118">
        <ele>1248</ele>
        <time>2019-05-29T11:48:43Z</time>
      </trkpt>
      <trkpt lat="42.79012" lon="1.62138">
        <ele>1247.7</ele>
        <time>2019-05-29T11:49:07Z</time>
      </trkpt>
      <trkpt lat="42.78968" lon="1.62125">
        <ele>1253.4</ele>
        <time>2019-05-29T11:49:25Z</time>
      </trkpt>
      <trkpt lat="42.78939" lon="1.62114">
        <ele>1254.9</ele>
        <time>2019-05-29T11:49:42Z</time>
      </trkpt>
      <trkpt lat="42.78916" lon="1.62114">
        <ele>1293</ele>
        <time>2019-05-29T11:50:01Z</time>
      </trkpt>
      <trkpt lat="42.78888" lon="1.62103">
        <ele>1294</ele>
        <time>2019-05-29T11:50:26Z</time>
      </trkpt>
      <trkpt lat="42.78865" lon="1.62123">
        <ele>1262.3</ele>
        <time>2019-05-29T11:50:46Z</time>
      </trkpt>
      <trkpt lat="42.78843" lon="1.62156">
        <ele>1271.3</ele>
        <time>2019-05-29T11:51:08Z</time>
      </trkpt>
      <trkpt lat="42.78828" lon="1.62175">
        <ele>1275.4</ele>
        <time>2019-05-29T11:51:29Z</time>
      </trkpt>
      <trkpt lat="42.78816" lon="1.62194">
        <ele>1276.8</ele>
        <time>2019-05-29T11:51:54Z</time>
      </trkpt>
      <trkpt lat="42.78799" lon="1.62219">
        <ele>1279</ele>
        <time>2019-05-29T11:52:18Z</time>
      </trkpt>
      <trkpt lat="42.78783" lon="1.62234">
        <ele>1280.7</ele>
        <time>2019-05-29T11:52:47Z</time>
      </trkpt>
      <trkpt lat="42.78765" lon="1.62258">
        <ele>1283.4</ele>
        <time>2019-05-29T11:53:10Z</time>
      </trkpt>
      <trkpt lat="42.78744" lon="1.6228">
        <ele>1285</ele>
        <time>2019-05-29T11:53:31Z</time>
      </trkpt>
      <trkpt lat="42.78713" lon="1.62292">
        <ele>1303</ele>
        <time>2019-05-29T11:53:53Z</time>
      </trkpt>
      <trkpt lat="42.78687" lon="1.62305">
        <ele>1304</ele>
        <time>2019-05-29T11:54:14Z</time>
      </trkpt>
      <trkpt lat="42.78666" lon="1.62333">
        <ele>1283.7</ele>
        <time>2019-05-29T11:54:30Z</time>
      </trkpt>
      <trkpt lat="42.78649" lon="1.62367">
        <ele>1285</ele>
        <time>2019-05-29T11:54:51Z</time>
      </trkpt>
      <trkpt lat="42.78636" lon="1.6239">
        <ele>1286.6</ele>
        <time>2019-05-29T11:55:12Z</time>
      </trkpt>
      <trkpt lat="42.78627" lon="1.62409">
        <ele>1288.2</ele>
        <time>2019-05-29T11:55:35Z</time>
      </trkpt>
      <trkpt lat="42.78615" lon="1.62442">
        <ele>1289.2</ele>
        <time>2019-05-29T11:56:00Z</time>
      </trkpt>
      <trkpt lat="42.78588" lon="1.62459">
        <ele>1315</ele>
        <time>2019-05-29T11:56:25Z</time>
      </trkpt>
      <trkpt lat="42.78566" lon="1.62482">
        <ele>1317</ele>
        <time>2019-05-29T11:56:45Z</time>
      </trkpt>
      <trkpt lat="42.78542" lon="1.625">
        <ele>1321</ele>
        <time>2019-05-29T11:57:11Z</time>
      </trkpt>
      <trkpt lat="42.78514" lon="1.62507">
        <ele>1323</ele>
        <time>2019-05-29T11:57:30Z</time>
      </trkpt>
      <trkpt lat="42.78487" lon="1.62519">
        <ele>1326</ele>
        <time>2019-05-29T11:57:48Z</time>
      </trkpt>
      <trkpt lat="42.78464" lon="1.62539">
        <ele>1288.7</ele>
        <time>2019-05-29T11:58:05Z</time>
      </trkpt>
      <trkpt lat="42.78446" lon="1.62557">
        <ele>1288.9</ele>
        <time>2019-05-29T11:58:23Z</time>
      </trkpt>
      <trkpt lat="42.78407" lon="1.62543">
        <ele>1330</ele>
        <time>2019-05-29T11:58:46Z</time>
      </trkpt>
      <trkpt lat="42.78379" lon="1.6255">
        <ele>1331</ele>
        <time>2019-05-29T11:59:05Z</time>
      </trkpt>
      <trkpt lat="42.78354" lon="1.62566">
        <ele>1331</ele>
        <time>2019-05-29T11:59:21Z</time>
      </trkpt>
      <trkpt lat="42.78332" lon="1.62588">
        <ele>1332</ele>
        <time>2019-05-29T11:59:45Z</time>
      </trkpt>
      <trkpt lat="42.78361" lon="1.62602">
        <ele>1333</ele>
        <time>2019-05-29T12:00:16Z</time>
      </trkpt>
      <trkpt lat="42.78375" lon="1.62567">
        <ele>1335</ele>
        <time>2019-05-29T12:01:08Z</time>
      </trkpt>
      <trkpt lat="42.78421" lon="1.62565">
        <ele>1291.6</ele>
        <time>2019-05-29T12:01:30Z</time>
      </trkpt>
      <trkpt lat="42.78425" lon="1.62584">
        <ele>1288.9</ele>
        <time>2019-05-29T12:01:49Z</time>
      </trkpt>
      <trkpt lat="42.78416" lon="1.62596">
        <ele>1287.9</ele>
        <time>2019-05-29T12:03:09Z</time>
      </trkpt>
      <trkpt lat="42.78404" lon="1.62618">
        <ele>1287.7</ele>
        <time>2019-05-29T12:03:50Z</time>
      </trkpt>
      <trkpt lat="42.78388" lon="1.62646">
        <ele>1288.1</ele>
        <time>2019-05-29T12:12:05Z</time>
      </trkpt>
      <trkpt lat="42.78373" lon="1.6266">
        <ele>1362</ele>
        <time>2019-05-29T12:12:36Z</time>
      </trkpt>
      <trkpt lat="42.78353" lon="1.62686">
        <ele>1364</ele>
        <time>2019-05-29T12:13:09Z</time>
      </trkpt>
      <trkpt lat="42.78336" lon="1.62715">
        <ele>1366</ele>
        <time>2019-05-29T12:13:42Z</time>
      </trkpt>
      <trkpt lat="42.78317" lon="1.62742">
        <ele>1368</ele>
        <time>2019-05-29T12:14:16Z</time>
      </trkpt>
      <trkpt lat="42.78301" lon="1.62773">
        <ele>1370</ele>
        <time>2019-05-29T12:14:50Z</time>
      </trkpt>
      <trkpt lat="42.78281" lon="1.62799">
        <ele>1372</ele>
        <time>2019-05-29T12:15:18Z</time>
      </trkpt>
      <trkpt lat="42.78256" lon="1.6282">
        <ele>1374</ele>
        <time>2019-05-29T12:15:48Z</time>
      </trkpt>
      <trkpt lat="42.78232" lon="1.62836">
        <ele>1304.4</ele>
        <time>2019-05-29T12:16:01Z</time>
      </trkpt>
      <trkpt lat="42.78202" lon="1.62837">
        <ele>1320.6</ele>
        <time>2019-05-29T12:16:39Z</time>
      </trkpt>
      <trkpt lat="42.78176" lon="1.62842">
        <ele>1392</ele>
        <time>2019-05-29T12:17:21Z</time>
      </trkpt>
      <trkpt lat="42.78149" lon="1.62835">
        <ele>1398</ele>
        <time>2019-05-29T12:17:51Z</time>
      </trkpt>
      <trkpt lat="42.7813" lon="1.62807">
        <ele>1401</ele>
        <time>2019-05-29T12:18:10Z</time>
      </trkpt>
      <trkpt lat="42.7811" lon="1.6278">
        <ele>1406</ele>
        <time>2019-05-29T12:18:37Z</time>
      </trkpt>
      <trkpt lat="42.78087" lon="1.6276">
        <ele>1411</ele>
        <time>2019-05-29T12:19:01Z</time>
      </trkpt>
      <trkpt lat="42.78062" lon="1.62746">
        <ele>1415</ele>
        <time>2019-05-29T12:19:26Z</time>
      </trkpt>
      <trkpt lat="42.78037" lon="1.6273">
        <ele>1419</ele>
        <time>2019-05-29T12:19:51Z</time>
      </trkpt>
      <trkpt lat="42.78013" lon="1.62711">
        <ele>1424</ele>
        <time>2019-05-29T12:20:22Z</time>
      </trkpt>
      <trkpt lat="42.77995" lon="1.62684">
        <ele>1427</ele>
        <time>2019-05-29T12:20:48Z</time>
      </trkpt>
      <trkpt lat="42.77971" lon="1.62664">
        <ele>1433</ele>
        <time>2019-05-29T12:26:30Z</time>
      </trkpt>
      <trkpt lat="42.77944" lon="1.62651">
        <ele>1435</ele>
        <time>2019-05-29T12:27:13Z</time>
      </trkpt>
      <trkpt lat="42.77918" lon="1.62637">
        <ele>1436</ele>
        <time>2019-05-29T12:27:38Z</time>
      </trkpt>
      <trkpt lat="42.77891" lon="1.62634">
        <ele>1438</ele>
        <time>2019-05-29T12:28:15Z</time>
      </trkpt>
      <trkpt lat="42.77864" lon="1.62642">
        <ele>1439</ele>
        <time>2019-05-29T12:28:48Z</time>
      </trkpt>
      <trkpt lat="42.77837" lon="1.62648">
        <ele>1440</ele>
        <time>2019-05-29T12:29:08Z</time>
      </trkpt>
      <trkpt lat="42.7781" lon="1.6266">
        <ele>1440</ele>
        <time>2019-05-29T12:29:32Z</time>
      </trkpt>
      <trkpt lat="42.77782" lon="1.62659">
        <ele>1440</ele>
        <time>2019-05-29T12:29:55Z</time>
      </trkpt>
      <trkpt lat="42.77755" lon="1.62652">
        <ele>1440</ele>
        <time>2019-05-29T12:30:17Z</time>
      </trkpt>
      <trkpt lat="42.77728" lon="1.62652">
        <ele>1441</ele>
        <time>2019-05-29T12:30:42Z</time>
      </trkpt>
      <trkpt lat="42.777" lon="1.62647">
        <ele>1441</ele>
        <time>2019-05-29T12:31:03Z</time>
      </trkpt>
      <trkpt lat="42.77672" lon="1.62651">
        <ele>1441</ele>
        <time>2019-05-29T12:31:35Z</time>
      </trkpt>
      <trkpt lat="42.77646" lon="1.62646">
        <ele>1442</ele>
        <time>2019-05-29T12:31:55Z</time>
      </trkpt>
      <trkpt lat="42.77618" lon="1.62646">
        <ele>1443</ele>
        <time>2019-05-29T12:32:21Z</time>
      </trkpt>
      <trkpt lat="42.77591" lon="1.62647">
        <ele>1445</ele>
        <time>2019-05-29T12:32:45Z</time>
      </trkpt>
      <trkpt lat="42.7757" lon="1.62672">
        <ele>1448</ele>
        <time>2019-05-29T12:33:07Z</time>
      </trkpt>
      <trkpt lat="42.77552" lon="1.627">
        <ele>1450</ele>
        <time>2019-05-29T12:33:27Z</time>
      </trkpt>
      <trkpt lat="42.77535" lon="1.62729">
        <ele>1453</ele>
        <time>2019-05-29T12:33:52Z</time>
      </trkpt>
      <trkpt lat="42.77516" lon="1.62756">
        <ele>1456</ele>
        <time>2019-05-29T12:34:16Z</time>
      </trkpt>
      <trkpt lat="42.77497" lon="1.62784">
        <ele>1459</ele>
        <time>2019-05-29T12:34:39Z</time>
      </trkpt>
      <trkpt lat="42.7747" lon="1.6279">
        <ele>1462</ele>
        <time>2019-05-29T12:34:58Z</time>
      </trkpt>
      <trkpt lat="42.77444" lon="1.62803">
        <ele>1465</ele>
        <time>2019-05-29T12:35:27Z</time>
      </trkpt>
      <trkpt lat="42.77421" lon="1.62822">
        <ele>1469</ele>
        <time>2019-05-29T12:35:51Z</time>
      </trkpt>
      <trkpt lat="42.77395" lon="1.62837">
        <ele>1472</ele>
        <time>2019-05-29T12:36:14Z</time>
      </trkpt>
      <trkpt lat="42.77421" lon="1.62824">
        <ele>1502</ele>
        <time>2019-05-29T12:42:55Z</time>
      </trkpt>
      <trkpt lat="42.77448" lon="1.62819">
        <ele>1504</ele>
        <time>2019-05-29T12:43:29Z</time>
      </trkpt>
      <trkpt lat="42.77475" lon="1.62828">
        <ele>1505</ele>
        <time>2019-05-29T12:43:53Z</time>
      </trkpt>
      <trkpt lat="42.775" lon="1.62845">
        <ele>1505</ele>
        <time>2019-05-29T12:44:20Z</time>
      </trkpt>
      <trkpt lat="42.77522" lon="1.62868">
        <ele>1505</ele>
        <time>2019-05-29T12:44:53Z</time>
      </trkpt>
      <trkpt lat="42.77544" lon="1.6289">
        <ele>1506</ele>
        <time>2019-05-29T12:45:22Z</time>
      </trkpt>
      <trkpt lat="42.77557" lon="1.62924">
        <ele>1506</ele>
        <time>2019-05-29T12:45:54Z</time>
      </trkpt>
      <trkpt lat="42.77552" lon="1.6296">
        <ele>1506</ele>
        <time>2019-05-29T12:46:29Z</time>
      </trkpt>
      <trkpt lat="42.77537" lon="1.62991">
        <ele>1507</ele>
        <time>2019-05-29T12:46:54Z</time>
      </trkpt>
      <trkpt lat="42.77518" lon="1.63017">
        <ele>1507</ele>
        <time>2019-05-29T12:47:24Z</time>
      </trkpt>
      <trkpt lat="42.775" lon="1.63047">
        <ele>1507</ele>
        <time>2019-05-29T12:47:53Z</time>
      </trkpt>
      <trkpt lat="42.7748" lon="1.63072">
        <ele>1508</ele>
        <time>2019-05-29T12:48:28Z</time>
      </trkpt>
      <trkpt lat="42.77467" lon="1.63105">
        <ele>1509</ele>
        <time>2019-05-29T12:48:52Z</time>
      </trkpt>
      <trkpt lat="42.77453" lon="1.63138">
        <ele>1511</ele>
        <time>2019-05-29T12:49:23Z</time>
      </trkpt>
      <trkpt lat="42.77439" lon="1.63172">
        <ele>1512</ele>
        <time>2019-05-29T12:49:55Z</time>
      </trkpt>
      <trkpt lat="42.77425" lon="1.63205">
        <ele>1514</ele>
        <time>2019-05-29T12:50:29Z</time>
      </trkpt>
      <trkpt lat="42.77415" lon="1.63241">
        <ele>1515</ele>
        <time>2019-05-29T12:50:58Z</time>
      </trkpt>
      <trkpt lat="42.7741" lon="1.63277">
        <ele>1516</ele>
        <time>2019-05-29T12:51:23Z</time>
      </trkpt>
      <trkpt lat="42.77416" lon="1.63314">
        <ele>1516</ele>
        <time>2019-05-29T12:51:48Z</time>
      </trkpt>
      <trkpt lat="42.77416" lon="1.63351">
        <ele>1517</ele>
        <time>2019-05-29T12:52:10Z</time>
      </trkpt>
      <trkpt lat="42.77398" lon="1.63379">
        <ele>1517</ele>
        <time>2019-05-29T12:52:46Z</time>
      </trkpt>
      <trkpt lat="42.77372" lon="1.63392">
        <ele>1517</ele>
        <time>2019-05-29T12:53:11Z</time>
      </trkpt>
      <trkpt lat="42.77348" lon="1.6341">
        <ele>1517</ele>
        <time>2019-05-29T12:53:39Z</time>
      </trkpt>
      <trkpt lat="42.77322" lon="1.63424">
        <ele>1517</ele>
        <time>2019-05-29T12:54:06Z</time>
      </trkpt>
      <trkpt lat="42.77297" lon="1.6344">
        <ele>1518</ele>
        <time>2019-05-29T12:54:41Z</time>
      </trkpt>
      <trkpt lat="42.77324" lon="1.63443">
        <ele>1518</ele>
        <time>2019-05-29T12:55:19Z</time>
      </trkpt>
      <trkpt lat="42.77351" lon="1.63444">
        <ele>1518</ele>
        <time>2019-05-29T12:55:43Z</time>
      </trkpt>
      <trkpt lat="42.77379" lon="1.63448">
        <ele>1518</ele>
        <time>2019-05-29T12:56:08Z</time>
      </trkpt>
      <trkpt lat="42.77406" lon="1.6346">
        <ele>1518</ele>
        <time>2019-05-29T12:56:34Z</time>
      </trkpt>
      <trkpt lat="42.7743" lon="1.63479">
        <ele>1518</ele>
        <time>2019-05-29T12:57:01Z</time>
      </trkpt>
      <trkpt lat="42.77446" lon="1.6351">
        <ele>1517</ele>
        <time>2019-05-29T12:57:24Z</time>
      </trkpt>
      <trkpt lat="42.77457" lon="1.63544">
        <ele>1517</ele>
        <time>2019-05-29T12:57:47Z</time>
      </trkpt>
      <trkpt lat="42.77463" lon="1.63581">
        <ele>1517</ele>
        <time>2019-05-29T12:58:10Z</time>
      </trkpt>
      <trkpt lat="42.77479" lon="1.63611">
        <ele>1517</ele>
        <time>2019-05-29T12:58:35Z</time>
      </trkpt>
      <trkpt lat="42.77463" lon="1.63579">
        <ele>1516</ele>
        <time>2019-05-29T12:59:24Z</time>
      </trkpt>
      <trkpt lat="42.77441" lon="1.63555">
        <ele>1515</ele>
        <time>2019-05-29T12:59:46Z</time>
      </trkpt>
      <trkpt lat="42.77414" lon="1.63548">
        <ele>1514</ele>
        <time>2019-05-29T13:00:11Z</time>
      </trkpt>
      <trkpt lat="42.77387" lon="1.63544">
        <ele>1514</ele>
        <time>2019-05-29T13:00:34Z</time>
      </trkpt>
      <trkpt lat="42.7736" lon="1.63548">
        <ele>1513</ele>
        <time>2019-05-29T13:01:00Z</time>
      </trkpt>
      <trkpt lat="42.77332" lon="1.63558">
        <ele>1512</ele>
        <time>2019-05-29T13:01:24Z</time>
      </trkpt>
      <trkpt lat="42.77309" lon="1.63579">
        <ele>1512</ele>
        <time>2019-05-29T13:01:52Z</time>
      </trkpt>
      <trkpt lat="42.77284" lon="1.63595">
        <ele>1512</ele>
        <time>2019-05-29T13:02:12Z</time>
      </trkpt>
      <trkpt lat="42.77259" lon="1.6361">
        <ele>1511</ele>
        <time>2019-05-29T13:02:31Z</time>
      </trkpt>
      <trkpt lat="42.77234" lon="1.63624">
        <ele>1511</ele>
        <time>2019-05-29T13:02:59Z</time>
      </trkpt>
      <trkpt lat="42.77207" lon="1.63633">
        <ele>1510</ele>
        <time>2019-05-29T13:03:23Z</time>
      </trkpt>
      <trkpt lat="42.77235" lon="1.63637">
        <ele>1509</ele>
        <time>2019-05-29T13:04:08Z</time>
      </trkpt>
      <trkpt lat="42.77263" lon="1.63644">
        <ele>1508</ele>
        <time>2019-05-29T13:04:28Z</time>
      </trkpt>
      <trkpt lat="42.77289" lon="1.63654">
        <ele>1507</ele>
        <time>2019-05-29T13:04:50Z</time>
      </trkpt>
      <trkpt lat="42.77315" lon="1.63668">
        <ele>1506</ele>
        <time>2019-05-29T13:05:13Z</time>
      </trkpt>
      <trkpt lat="42.77342" lon="1.63681">
        <ele>1505</ele>
        <time>2019-05-29T13:05:37Z</time>
      </trkpt>
      <trkpt lat="42.77364" lon="1.63702">
        <ele>1504</ele>
        <time>2019-05-29T13:05:59Z</time>
      </trkpt>
      <trkpt lat="42.77384" lon="1.63729">
        <ele>1503</ele>
        <time>2019-05-29T13:06:22Z</time>
      </trkpt>
      <trkpt lat="42.77407" lon="1.6375">
        <ele>1503</ele>
        <time>2019-05-29T13:06:48Z</time>
      </trkpt>
      <trkpt lat="42.77427" lon="1.63773">
        <ele>1501</ele>
        <time>2019-05-29T13:07:11Z</time>
      </trkpt>
      <trkpt lat="42.77448" lon="1.63796">
        <ele>1500</ele>
        <time>2019-05-29T13:07:34Z</time>
      </trkpt>
      <trkpt lat="42.77474" lon="1.63808">
        <ele>1498</ele>
        <time>2019-05-29T13:07:55Z</time>
      </trkpt>
      <trkpt lat="42.77497" lon="1.63828">
        <ele>1497</ele>
        <time>2019-05-29T13:08:20Z</time>
      </trkpt>
      <trkpt lat="42.77518" lon="1.63852">
        <ele>1494</ele>
        <time>2019-05-29T13:08:47Z</time>
      </trkpt>
      <trkpt lat="42.77544" lon="1.63863">
        <ele>1492</ele>
        <time>2019-05-29T13:09:14Z</time>
      </trkpt>
      <trkpt lat="42.77569" lon="1.63883">
        <ele>1490</ele>
        <time>2019-05-29T13:09:32Z</time>
      </trkpt>
      <trkpt lat="42.77586" lon="1.63911">
        <ele>1487</ele>
        <time>2019-05-29T13:09:56Z</time>
      </trkpt>
      <trkpt lat="42.77606" lon="1.63938">
        <ele>1484</ele>
        <time>2019-05-29T13:10:20Z</time>
      </trkpt>
      <trkpt lat="42.77624" lon="1.63967">
        <ele>1482</ele>
        <time>2019-05-29T13:10:44Z</time>
      </trkpt>
      <trkpt lat="42.77636" lon="1.64001">
        <ele>1479</ele>
        <time>2019-05-29T13:11:07Z</time>
      </trkpt>
      <trkpt lat="42.77645" lon="1.64037">
        <ele>1476</ele>
        <time>2019-05-29T13:11:29Z</time>
      </trkpt>
      <trkpt lat="42.77652" lon="1.64075">
        <ele>1474</ele>
        <time>2019-05-29T13:11:51Z</time>
      </trkpt>
      <trkpt lat="42.77664" lon="1.64108">
        <ele>1471</ele>
        <time>2019-05-29T13:12:16Z</time>
      </trkpt>
      <trkpt lat="42.77653" lon="1.64134">
        <ele>1372.2</ele>
        <time>2019-05-29T13:13:12Z</time>
      </trkpt>
    </trkseg>
  </trk>
</gpx>